Regional Weather Roundup
Issued by NWS

Home | Current Version | Previous Version | Text Only | Print | Product List | Glossary On
Versions: 1 2 3 4 5 6 7 8 9 10 11 12 13 14 15 16 17 18 19 20 21 22 23 24 25 26 27 28 29 30 31 32 33 34 35 36 37 38 39 40 41 42 43 44 45 46 47 48 49 50
000
ASUS44 KFWD 302215
RWRTX
NORTH TEXAS HOURLY WEATHER ROUNDUP
NATIONAL WEATHER SERVICE FORT WORTH TX
500 PM CDT SAT JUL 30 2016

NOTE: "FAIR" INDICATES FEW OR NO CLOUDS BELOW 12,000 FEET WITH NO
SIGNIFICANT WEATHER AND/OR OBSTRUCTIONS TO VISIBILITY.

TXZ118-119-302300-
DALLAS/FORT WORTH METROPLEX

CITY           SKY/WX    TMP DP  RH WIND       PRES   REMARKS
DFW AIRPORT    MOSUNNY   99  65  32 SE14G20   29.91F HX 102
DALLAS LOVE    MOSUNNY   98  63  31 S10G16    29.91F HX 100
FTW MEACHAM    MOSUNNY   99  65  32 SW13      29.91F HX 102
DAL-EXECUTIVE  SUNNY     97  62  31 S12       29.92F HX  98
FTW-ALLIANCE   MOSUNNY   98  65  33 S14       29.91F HX 101
FTW-NAS-JRB    MOSUNNY  100  64  30 S13       29.91F HX 102
FTW-SPINKS     MOSUNNY   99  64  32 SE12      29.93F HX 101
ARLINGTON      SUNNY     97  63  32 VRB7      29.92F HX  98
GRAND PRAIRIE  SUNNY     97  61  30 SE8       29.93F HX  97
ADDISON        MOSUNNY   97  63  32 SW5G16    29.93F HX  98
MESQUITE       MOSUNNY   97  64  34 S8G16     29.93F HX  99
LANCASTER      SUNNY    100  62  29 S12       29.93F HX 101
$$

TXZ091>094-102>105-117-120-121-131>134-302300-
NORTH CENTRAL TEXAS

CITY           SKY/WX    TMP DP  RH WIND       PRES   REMARKS
SHRMAN/DENISON MOSUNNY   99  64  31 S12       29.92F HX 101
GAINESVILLE    MOSUNNY   95  69  42 S12       29.93F HX 100
BOWIE          SUNNY     97  66  36 SE7G17    29.92F HX 101
BRIDGEPORT     SUNNY     98  66  34 S10       29.93F HX 101
DECATUR        SUNNY     97  63  32 S12       29.93F HX  98
DENTON         MOSUNNY   96  69  41 S15       29.91F HX 102
MCKINNEY       MOSUNNY   94  68  42 VRB7      29.91F HX  98
GREENVILLE     MOSUNNY   97  61  30 S9        29.93F HX  97
ROCKWALL       SUNNY     97  67  37 S7G17     29.92S HX 101
TERRELL        SUNNY     98  64  32 SW13      29.93F HX 100
WAXAHACHIE     SUNNY     94  65  38 S8        29.94F HX  97
CLEBURNE       SUNNY     99  64  32 S12       29.94F HX 101
GRANBURY       MOSUNNY  100  61  28 SE10G16   29.92F HX 101
$$

TXZ083>090-098>101-113>116-127>130-139>142-154-155-302300-
WESTERN NORTH TEXAS

CITY           SKY/WX    TMP DP  RH WIND       PRES   REMARKS
WICHITA FALLS  SUNNY    100  63  29 SW9       29.88F HX 102
WF-KICKAPOO    SUNNY    100  59  25 S16       29.90S HX  99
VERNON           N/A    N/A N/A N/A S10       29.90S
ABILENE        MOSUNNY   97  61  30 SW16      29.95F HX  97
ABILENE-DYESS  MOSUNNY   97  63  32 S14G22    29.93F HX  98
CISCO          MOSUNNY   95  63  34 S12       29.96F HAZE    HX  96
BRECKENRIDGE   SUNNY     99  58  25 S7G21     29.92F HX  98
GRAHAM         SUNNY    100  64  31 SE7       29.89F HX 102
MINERAL WELLS  SUNNY     97  66  36 S9        29.90F HX 100
STEPHENVILLE   SUNNY     97  60  29 S9        29.97F HX  97
COMANCHE       MOSUNNY   98  64  33 SE10G16   29.95F HX 100
BROWNWOOD      LGT RAIN  95  59  30 SW6       29.94F HX  94
COLEMAN        SUNNY     97  60  28 SE12      29.95F HX  97
$$

TXZ143>147-156>162-174-175-302300-
CENTRAL TEXAS

CITY           SKY/WX    TMP DP  RH WIND       PRES   REMARKS
WACO           MOSUNNY   97  64  33 S7        29.92F HX  99
WACO-TSTC      MOSUNNY   99  64  32 SE7       29.92F HX 101
WACO-MCGREGOR  MOSUNNY  100  66  32 S13       29.93  HX 104
HILLSBORO      SUNNY     97  61  30 S10       29.93F HX  97
CORSICANA      MOSUNNY   96  70  42 S8        29.94F HX 102
MEXIA          MOSUNNY   96  67  38 S6        29.93F HX 100
HEARNE         MOSUNNY   97  68  38 S5        29.95F HX 101
CAMERON        PTSUNNY   98  68  37 S9G16     29.94F HX 103
TEMPLE         SUNNY     98  67  36 SE10G21   29.94F HX 102
KILLEEN        MOSUNNY   94  65  38 S10       29.94F HX  96
KILLEEN-SKYLRK PTSUNNY   97  68  38 VRB7      29.94F HX 102
FORT HOOD      MOSUNNY   96  67  38 S12       29.92F HX  99
GATESVILLE     MOSUNNY   99  63  30 S9        29.95F HX 100
HAMILTON       MOSUNNY   98  61  29 S9        29.97F HX  98
LAMPASAS       SUNNY     98  64  33 SE9       29.95F HX 100
$$

TXZ095>097-106>112-122>126-135>138-148>153-164>167-302300-
EAST TEXAS

CITY           SKY/WX    TMP DP  RH WIND       PRES   REMARKS
PARIS          MOSUNNY   86  70  58 E12       29.93F THUNDER HX  90
SULPHUR SPRNGS SUNNY     97  63  32 SW9       29.94F HX  98
MOUNT PLEASANT SUNNY     97  63  32 W9        29.94F HX  99
GILMER         SUNNY     95  67  40 S5        29.94F HX  99
MINEOLA        MOSUNNY   97  70  41 SE7       29.94F HX 103
TYLER          SUNNY     98  67  36 SW8       29.95F HX 102
LONGVIEW       SUNNY     95  70  44 VRB7      29.93F HX 101
MARSHALL       SUNNY     90  69  49 S6        29.96F HX  94
ATHENS         SUNNY     93  70  46 S7        29.94S HX  99
PALESTINE      SUNNY     95  70  43 S8        29.96F HX 101
JACKSONVILLE   SUNNY     95  66  37 S6        29.99F HX  98
HENDERSON      SUNNY     94  66  39 CALM      29.96F HX  97
CENTER         PTCLDY    95  74  50 S8        29.97F HX 105
NACOGDOCHES    SUNNY    N/A N/A N/A SW9       29.94F
LUFKIN         PTSUNNY   95  69  42 S9        29.95F HX 100
$$

SUPPLEMENTAL OBSERVATIONS (CENTRAL)

CITY           SKY/WX    TMP DP  RH WIND       PRES   REMARKS
DENISON DAM      N/A     97  68  38 S5          N/A  HX 101
CADDO GRASSLND   N/A     97  68  38 S9          N/A  HX 101
PAT MAYSE LAKE   N/A     84  72  65 SE6         N/A
GREENVILLE       N/A     97  64  34 S10         N/A  HX  99
CEDAR HILL       N/A     99  64  32 S5G14       N/A  HX 101
ATHENS           N/A     97  70  41 SW7         N/A  HX 103
LAKE LIMESTONE   N/A     99  66  34 S9          N/A  HX 102
MCGREGOR         N/A     97  66  36 S10         N/A  HX 100
TEMPLE           N/A     97  64  34 S10         N/A  HX  99
$$

SUPPLEMENTAL OBSERVATIONS (WEST)

CITY           SKY/WX    TMP DP  RH WIND       PRES   REMARKS
POSSUM KINGDOM   N/A     99  63  30 SE10G18     N/A  HX 100
LBJ GRASSLAND    N/A     97  68  38 SE8         N/A  HX 101
GRANBURY         N/A    100  63  28 SE10G18     N/A  HX 102
COMANCHE         N/A     95  64  36 SE8G16      N/A  HX  97
HAMBY            N/A     97  61  30 S12         N/A  HX  97
$$

SUPPLEMENTAL OBSERVATIONS (EAST)

CITY           SKY/WX    TMP DP  RH WIND       PRES   REMARKS
TEXARKANA        N/A     90  72  55 N5          N/A  HX  96
LINDEN           N/A     99  70  39 W5          N/A  HX 105
HENDERSON        N/A     97  70  41 SW9         N/A  HX 103
LUFKIN           N/A     95  72  46 MISG        N/A  HX 103
N SABINE NF      N/A     97  72  44 MISG        N/A  HX 105
$$

SUPPLEMENTAL OBSERVATIONS ARE A COLLECTION OF AUTOMATED INSTRUMENTS
THAT ARE MAINTAINED BY A VARIETY OF FEDERAL AND STATE AGENCIES.
CERTAIN ELEMENTS...SUCH AS HUMIDITY VALUES AND SUSTAINED WIND
SPEEDS...MAY BE APPROXIMATED.




USA.gov is the U.S. government's official web portal to all federal, state and local government web resources and services.